WGS F7 (USA 263)

Last updated on Fri Dec 19 2025 00:02:51 GMT+0000 (Coordinated Universal Time)

1 40746U 15036A 25352.55113904 .00000000 00000+0 00000+0 0 9999 2 40746 0.0277 337.2694 0000190 50.6214 72.9200 1.00269249 38061
UTC large
Height (km)
Speed (km/s)
/
Latitude / Longitude
Inclination (degrees)
Orbital Period (minutes)
Azimuth
Elevation
Range (km)
Doppler Factor

Next 0 passes for location: London (51.5072 / 0.1276)

Sorry there are no passes over London.